Tracking 29487 objects as of 10-Sep-2024
HD Live streaming from Space Station
objects crossing your sky now

FENGYUN 1C DEB

Track FENGYUN 1C DEB now!
10-day predictions


NORAD ID: 37477
Int'l Code: 1999-025EJX
Perigee: 815.6 km
Apogee: 868.4 km
Inclination: 98.6 °
Period: 101.6 minutes
Semi major axis: 7212 km
RCS: 0.0017 m2 (small)
Launch date: May 10, 1999
Source: People's Republic of China (PRC)
Launch site: Taiyaun Space Center, China (TSC)

Note: This is SATELLITE DEBRIS
Your satellite tracking list
Your tracking list is empty




NASA's NSSDC Master Catalog

Two Line Element Set (TLE):
1 37477U 99025EJX 24252.81852691  .00007664  00000-0  37924-2 0  9998
2 37477  98.6121 264.9603 0036574 357.1674   2.9288 14.17193803753938
Source of the keplerian elements: AFSPC